Overview Statistics Trail Chart Weather Telemetry Raw packets
 

This is the latest recevied weather packets stored in our database for station/object SV9TNF-51. If no packets are shown the sender has not sent any weather packets the latest 10 day(s).

<< 38 39 40 41 42 43 44 >>
Time Temp. Humidity Pressure Rain* Wind** Luminosity Snow
1788411245 25° C 68% 1010.5 hPa 0 mm 1.79 m/s, 163° - -
1788410945 25° C 62% 1010.5 hPa 0 mm 6.26 m/s, 318° - -
1788410644 25° C 57% 1010.5 hPa 0 mm 6.26 m/s, 318° - -
1788410344 24.44° C 52% 1010.5 hPa 0 mm 4.92 m/s, 355° - -
1788410044 25° C 49% 1009.8 hPa 0 mm 8.94 m/s, 340° - -
1788409744 25° C 51% 1009.8 hPa 0 mm 7.15 m/s, 339° - -
1788409444 25° C 49% 1009.5 hPa 0 mm 8.05 m/s, 354° - -
1788409144 25.56° C 46% 1009.5 hPa 0 mm 10.28 m/s, 341° - -
1788408844 25° C 47% 1009.5 hPa 0 mm 8.49 m/s, 348° - -
1788408544 25° C 60% 1009.5 hPa 0 mm 6.26 m/s, 339° - -
1788408244 25° C 60% 1009.5 hPa 0 mm 5.81 m/s, 335° - -
1788407944 25° C 64% 1009.5 hPa 0 mm 7.6 m/s, 339° - -
1788407643 25° C 61% 1009.5 hPa 0 mm 5.81 m/s, 355° - -
1788407343 24.44° C 51% 1009.5 hPa 0 mm 4.02 m/s, 339° - -
1788407043 24.44° C 52% 1009.5 hPa 0 mm 3.58 m/s, 69° - -
1788406744 23.89° C 53% 1009.5 hPa 0 mm 4.92 m/s, 316° - -
1788406443 23.89° C 52% 1009.5 hPa 0 mm 5.36 m/s, 331° - -
1788406143 23.89° C 62% 1009.5 hPa 0 mm 5.81 m/s, 322° - -
1788405843 23.89° C 62% 1009.5 hPa 0 mm 5.81 m/s, 337° - -
1788405542 23.33° C 59% 1009.5 hPa 0 mm 6.71 m/s, 311° - -
1788405242 23.89° C 61% 1009.5 hPa 0 mm 4.47 m/s, 319° - -
1788404942 23.89° C 58% 1009.5 hPa 0 mm 3.58 m/s, 90° - -
1788404642 23.89° C 56% 1009.5 hPa 0 mm 4.92 m/s, 332° - -
1788404342 23.89° C 57% 1009.5 hPa 0 mm 4.02 m/s, 326° - -
1788404043 23.89° C 64% 1009.5 hPa 0 mm 4.47 m/s, 342° - -

* Rain latest hour (hover to see other rain measurements)
** Current wind speed in m/s (hover to see current wind gust speed)